User: anonymous   Login
Location: Cantarrana
(10.3575°N, 66.9340°W)
Time: 01:03:21
(UTC+00:00)
Language:

COSMOS 2487 - Orbit

View from above orbital plane
View from above orbital plane
View from above satellite
View from above satellite

Ground track
Ground track

The orbit data is extracted from the following two-line orbital elements,

1 39194U 13032A   22145.73339883  .00054026  00000-0  69980-3 0  9995
2 39194  74.7023   5.5584 0006612 166.0324 194.1082 15.58612053499299
Epoch (UTC): 25 May 2022 17:36:05
Eccentricity: 0.0006612
inclination: 74.7023°
perigee height: 387 km
apogee height: 396 km
right ascension of ascending node: 5.5584°
argument of perigee: 166.0324°
revolutions per day: 15.58612053
mean anomaly at epoch: 194.1082°
orbit number at epoch: 49929

The dashed part of the orbit path shows where the satellite is in the earth's shadow,  

DLR